GW3329 Weather Reports


time (UTC)temp
C
wind
direction
speed
KPH
gust
KPH
rain 1hr
cm
rain 24hr
cm
rain mn
cm
humidity
%
barometer
mb
20260904032729 17 162 0.0 0.0 0.00 0.00 0.00 83 1016.0
20260904032228 18 158 0.0 0.0 0.00 0.00 0.00 83 1016.2
20260904031723 18 162 0.0 0.0 0.00 0.00 0.00 82 1016.3
20260904031218 18 160 0.0 0.0 0.00 0.00 0.00 82 1016.0
20260904030714 18 161 0.0 1.6 0.00 0.00 0.00 82 1015.9
20260904030209 18 170 0.0 0.0 0.00 0.00 0.00 81 1016.1
20260904025706 18 155 0.0 1.6 0.00 0.00 0.00 81 1016.0
20260904025200 18 131 0.0 0.0 0.00 0.00 0.00 80 1015.9
20260904024656 18 128 0.0 1.6 0.00 0.00 0.00 80 1015.9
20260904024151 18 178 0.0 1.6 0.00 0.00 0.00 79 1015.9
20260904023647 18 144 0.0 1.6 0.00 0.00 0.00 78 1015.7
20260904023143 19 190 0.0 3.2 0.00 0.00 0.00 78 1015.8
20260904022642 19 208 3.2 6.4 0.00 0.00 0.00 77 1015.8
20260904022139 19 178 0.0 1.6 0.00 0.00 0.00 77 1015.9
20260904021635 20 249 3.2 3.2 0.00 0.00 0.00 76 1015.9
20260904021125 20 178 1.6 9.7 0.00 0.00 0.00 75 1015.8
20260904020621 20 103 1.6 3.2 0.00 0.00 0.00 75 1015.7
20260904020115 20 245 3.2 3.2 0.00 0.00 0.00 74 1015.8
20260904015615 20 141 0.0 3.2 0.00 0.00 0.00 73 1015.7
20260904015113 20 53 0.0 3.2 0.00 0.00 0.00 73 1015.5
20260904014607 21 92 1.6 4.8 0.00 0.00 0.00 72 1015.6
20260904014103 21 203 1.6 1.6 0.00 0.00 0.00 72 1015.8
20260904013600 21 155 0.0 1.6 0.00 0.00 0.00 72 1015.8
20260904013056 21 148 0.0 4.8 0.00 0.00 0.00 71 1015.8
20260904012556 21 178 3.2 4.8 0.00 0.00 0.00 70 1015.7
20260904012056 22 231 1.6 3.2 0.00 0.00 0.00 69 1015.9
20260904011550 22 102 1.6 6.4 0.00 0.00 0.00 69 1015.9
20260904011045 22 8 1.6 4.8 0.00 0.00 0.00 68 1015.9
20260904010541 22 259 4.8 9.7 0.00 0.00 0.00 69 1016.0
20260904010037 22 257 6.4 9.7 0.00 0.00 0.00 68 1015.9
20260904005532 22 133 0.0 6.4 0.00 0.00 0.00 68 1015.8
20260904005027 23 291 6.4 6.4 0.00 0.00 0.00 67 1015.8
20260904004523 23 235 4.8 4.8 0.00 0.00 0.00 67 1016.0
20260904004022 23 262 6.4 6.4 0.00 0.00 0.00 67 1016.1
20260904003519 23 38 3.2 11.3 0.00 0.00 0.00 67 1015.9
20260904003014 23 168 3.2 11.3 0.00 0.00 0.00 67 1015.7
20260904002510 23 265 1.6 4.8 0.00 0.00 0.00 67 1015.8
20260904002009 23 171 4.8 9.7 0.00 0.00 0.00 66 1015.9
20260904001505 23 250 4.8 6.4 0.00 0.00 0.00 67 1016.0
20260904000959 23 265 4.8 9.7 0.00 0.00 0.00 67 1015.8
20260904000458 23 201 4.8 9.7 0.00 0.00 0.00 67 1015.8
20260903235954 23 202 1.6 9.7 0.00 0.00 0.00 66 1015.7
20260903235449 24 297 4.8 11.3 0.00 0.00 0.00 66 1016.0
20260903234944 25 260 6.4 9.7 0.00 0.00 0.00 65 1016.0
20260903234440 24 291 3.2 16.1 0.00 0.00 0.00 65 1016.1
20260903233936 24 269 4.8 9.7 0.00 0.00 0.00 65 1015.9
20260903233431 24 242 6.4 9.7 0.00 0.00 0.00 65 1015.9
20260903232926 25 307 3.2 9.7 0.00 0.00 0.00 65 1016.1
20260903232420 25 171 3.2 6.4 0.00 0.00 0.00 64 1016.0
20260903231915 25 287 3.2 9.7 0.00 0.00 0.00 64 1016.1
20260903231410 25 305 6.4 9.7 0.00 0.00 0.00 64 1016.2
20260903230905 25 159 8.0 14.5 0.00 0.00 0.00 64 1016.1
20260903230400 25 125 4.8 9.7 0.00 0.00 0.00 64 1016.1
20260903225856 25 266 3.2 6.4 0.00 0.00 0.00 63 1016.1
20260903225352 26 13 4.8 14.5 0.00 0.00 0.00 63 1016.2
20260903224848 26 46 3.2 4.8 0.00 0.00 0.00 63 1016.1
20260903224344 26 97 4.8 12.9 0.00 0.00 0.00 62 1016.4
20260903223839 26 249 1.6 3.2 0.00 0.00 0.00 62 1016.3
20260903223337 26 189 4.8 6.4 0.00 0.00 0.00 63 1016.2
20260903222832 26 14 3.2 4.8 0.00 0.00 0.00 63 1016.4
20260903222327 26 138 1.6 4.8 0.00 0.00 0.00 63 1016.1
20260903221821 26 224 3.2 4.8 0.00 0.00 0.00 61 1016.5
20260903221320 26 269 6.4 12.9 0.00 0.00 0.00 61 1016.2
20260903220818 26 158 6.4 9.7 0.00 0.00 0.00 63 1016.4
20260903220312 26 276 9.7 16.1 0.00 0.00 0.00 63 1016.6
20260903215810 26 187 3.2 6.4 0.00 0.00 0.00 62 1016.6
20260903215308 26 218 6.4 9.7 0.00 0.00 0.00 62 1016.5
20260903214805 26 264 9.7 14.5 0.00 0.00 0.00 62 1016.7
20260903214302 26 51 3.2 6.4 0.00 0.00 0.00 63 1016.5
20260903213756 26 112 3.2 12.9 0.00 0.00 0.00 63 1016.5
20260903213251 26 354 3.2 9.7 0.00 0.00 0.00 63 1016.4
20260903212742 26 156 1.6 6.4 0.00 0.00 0.00 64 1016.5
20260903212238 26 285 6.4 11.3 0.00 0.00 0.00 64 1016.6
20260903211731 26 191 3.2 6.4 0.00 0.00 0.00 64 1016.6
20260903211228 25 13 1.6 9.7 0.00 0.00 0.00 66 1016.8
20260903210724 26 15 6.4 11.3 0.00 0.00 0.00 64 1016.9
20260903210219 26 53 1.6 6.4 0.00 0.00 0.00 65 1016.9
20260903205719 26 265 8.0 12.9 0.00 0.00 0.00 64 1016.7
20260903205218 26 127 3.2 11.3 0.00 0.00 0.00 64 1017.0
20260903204713 26 242 4.8 12.9 0.00 0.00 0.00 65 1016.7
20260903204210 26 98 0.0 6.4 0.00 0.00 0.00 66 1016.8
20260903203705 25 223 6.4 11.3 0.00 0.00 0.00 65 1016.7
20260903203201 26 244 6.4 12.9 0.00 0.00 0.00 64 1017.0
20260903202654 26 260 6.4 12.9 0.00 0.00 0.00 63 1016.9
20260903202150 26 223 3.2 6.4 0.00 0.00 0.00 63 1016.8
20260903201644 26 167 3.2 9.7 0.00 0.00 0.00 64 1016.8
20260903201143 26 63 1.6 14.5 0.00 0.00 0.00 64 1016.8
20260903200638 26 201 4.8 6.4 0.00 0.00 0.00 63 1016.9
20260903200133 26 258 6.4 9.7 0.00 0.00 0.00 63 1016.9
20260903195629 26 183 1.6 9.7 0.00 0.00 0.00 63 1017.0
20260903195125 26 91 1.6 9.7 0.00 0.00 0.00 64 1017.2
20260903194620 26 243 4.8 14.5 0.00 0.00 0.00 63 1017.1
20260903194120 26 54 1.6 11.3 0.00 0.00 0.00 63 1017.2
20260903193616 26 197 1.6 3.2 0.00 0.00 0.00 62 1017.1
20260903193111 26 160 3.2 4.8 0.00 0.00 0.00 62 1017.1
20260903192609 26 203 6.4 9.7 0.00 0.00 0.00 62 1017.4
20260903192108 26 244 11.3 12.9 0.00 0.00 0.00 63 1017.1
20260903191605 26 289 6.4 9.7 0.00 0.00 0.00 61 1017.3
20260903191059 26 284 6.4 11.3 0.00 0.00 0.00 61 1017.3
20260903190559 26 108 3.2 6.4 0.00 0.00 0.00 62 1017.3
20260903190059 27 308 9.7 11.3 0.00 0.00 0.00 58 1017.5
20260903185554 26 155 0.0 1.6 0.00 0.00 0.00 60 1017.5
20260903185049 26 102 0.0 3.2 0.00 0.00 0.00 60 1017.9
20260903184545 26 104 0.0 4.8 0.00 0.00 0.00 59 1017.6
20260903184040 26 56 0.0 4.8 0.00 0.00 0.00 58 1017.7
20260903183539 26 30 3.2 3.2 0.00 0.00 0.00 58 1017.7
20260903183035 26 107 1.6 3.2 0.00 0.00 0.00 57 1017.8
20260903182533 26 165 1.6 6.4 0.00 0.00 0.00 58 1017.8
20260903182030 26 59 1.6 3.2 0.00 0.00 0.00 59 1017.8
20260903181528 26 138 1.6 4.8 0.00 0.00 0.00 59 1017.8
20260903181023 26 121 1.6 6.4 0.00 0.00 0.00 59 1017.7
20260903180519 25 97 3.2 4.8 0.00 0.00 0.00 59 1017.7
20260903180018 25 67 0.0 3.2 0.00 0.00 0.00 60 1017.9
20260903175517 25 186 4.8 6.4 0.00 0.00 0.00 59 1017.9
20260903175017 25 151 0.0 1.6 0.00 0.00 0.00 62 1017.9
20260903174511 25 186 1.6 3.2 0.00 0.00 0.00 60 1017.9
20260903174006 25 158 3.2 4.8 0.00 0.00 0.00 62 1018.1
20260903173501 24 102 1.6 4.8 0.00 0.00 0.00 64 1017.9
20260903172957 25 132 1.6 3.2 0.00 0.00 0.00 63 1017.9
20260903172457 24 137 0.0 1.6 0.00 0.00 0.00 64 1018.1
20260903171952 23 71 0.0 1.6 0.00 0.00 0.00 66 1018.2
20260903171447 23 90 3.2 4.8 0.00 0.00 0.00 66 1018.0
20260903170942 23 109 0.0 4.8 0.00 0.00 0.00 67 1018.1
20260903170437 23 89 3.2 3.2 0.00 0.00 0.00 67 1018.0
20260903165936 23 116 1.6 3.2 0.00 0.00 0.00 67 1018.2
20260903165430 22 133 1.6 3.2 0.00 0.00 0.00 68 1018.1
20260903164924 22 89 0.0 6.4 0.00 0.00 0.00 68 1018.0
20260903164419 23 118 1.6 6.4 0.00 0.00 0.00 70 1017.9
20260903163919 22 57 3.2 3.2 0.00 0.00 0.00 70 1018.0
20260903163415 22 90 1.6 4.8 0.00 0.00 0.00 72 1018.0
20260903162911 22 80 6.4 11.3 0.00 0.00 0.00 72 1018.1
20260903162408 22 86 3.2 9.7 0.00 0.00 0.00 72 1018.1
20260903161903 21 141 3.2 9.7 0.00 0.00 0.00 74 1018.1
20260903161358 21 146 3.2 9.7 0.00 0.00 0.00 74 1018.0
20260903160854 21 147 0.0 4.8 0.00 0.00 0.00 76 1018.0
20260903160353 21 98 3.2 6.4 0.00 0.00 0.00 76 1018.0
20260903155851 21 141 3.2 6.4 0.00 0.00 0.00 77 1018.1
20260903155347 20 109 1.6 6.4 0.00 0.00 0.00 78 1018.2
20260903154842 20 71 3.2 4.8 0.00 0.00 0.00 79 1018.2
20260903154338 20 136 1.6 9.7 0.00 0.00 0.00 80 1018.0
20260903153833 20 89 3.2 9.7 0.00 0.00 0.00 80 1018.2
20260903153329 20 108 1.6 1.6 0.00 0.00 0.00 80 1018.3
20260903152826 20 147 1.6 6.4 0.00 0.00 0.00 81 1018.0
20260903152321 20 77 3.2 3.2 0.00 0.00 0.00 82 1018.0
20260903151816 19 177 4.8 9.7 0.00 0.00 0.00 82 1018.2
20260903151312 19 149 0.0 4.8 0.00 0.00 0.00 83 1018.2
20260903150812 18 74 4.8 4.8 0.00 0.00 0.00 83 1018.0
20260903150311 18 146 4.8 6.4 0.00 0.00 0.00 83 1018.1
20260903145806 18 111 3.2 6.4 0.00 0.00 0.00 84 1018.1
20260903145305 18 136 0.0 3.2 0.00 0.00 0.00 84 1018.1
20260903144800 18 110 0.0 1.6 0.00 0.00 0.00 85 1018.1
20260903144256 18 127 0.0 1.6 0.00 0.00 0.00 85 1018.1
20260903143752 17 125 0.0 1.6 0.00 0.00 0.00 86 1018.1
20260903143248 17 118 0.0 1.6 0.00 0.00 0.00 86 1018.1
20260903142743 16 128 0.0 1.6 0.00 0.00 0.00 86 1018.0
20260903142239 16 121 0.0 0.0 0.00 0.00 0.00 87 1017.6
20260903141735 16 124 0.0 0.0 0.00 0.00 0.00 88 1017.9
20260903141230 15 121 0.0 0.0 0.00 0.00 0.00 89 1017.8
20260903140725 15 147 0.0 0.0 0.00 0.00 0.00 91 1017.7
20260903140220 15 141 0.0 0.0 0.00 0.00 0.00 92 1017.6
20260903135716 14 164 1.6 3.2 0.00 0.00 0.00 93 1017.8
20260903135211 13 149 0.0 0.0 0.00 0.00 0.00 93 1017.9
20260903134710 13 157 0.0 0.0 0.00 0.00 0.00 94 1017.8
20260903134206 13 149 0.0 0.0 0.00 0.00 0.00 93 1017.8
20260903133704 13 148 0.0 0.0 0.00 0.00 0.00 93 1017.8
20260903133200 13 149 0.0 0.0 0.00 0.00 0.00 93 1017.8
20260903132700 13 140 0.0 0.0 0.00 0.00 0.00 94 1017.7
20260903132154 13 136 0.0 0.0 0.00 0.00 0.00 94 1017.7
20260903131649 13 143 0.0 0.0 0.00 0.00 0.00 94 1017.6
20260903131148 13 142 0.0 0.0 0.00 0.00 0.00 94 1017.7
20260903130643 13 146 0.0 0.0 0.00 0.00 0.00 94 1017.6
20260903130138 13 159 0.0 0.0 0.00 0.00 0.00 94 1017.8
20260903125636 13 159 0.0 0.0 0.00 0.00 0.00 94 1017.7
20260903125131 13 159 0.0 0.0 0.00 0.00 0.00 93 1017.6
20260903124625 13 159 0.0 0.0 0.00 0.00 0.00 93 1017.5
20260903124119 13 159 0.0 0.0 0.00 0.00 0.00 93 1017.8
20260903123614 13 159 0.0 0.0 0.00 0.00 0.00 93 1017.6
20260903123113 13 159 0.0 0.0 0.00 0.00 0.00 93 1017.8
20260903122613 13 159 0.0 0.0 0.00 0.00 0.00 93 1017.6
20260903122112 13 159 0.0 0.0 0.00 0.00 0.00 93 1017.7
20260903121607 13 160 0.0 0.0 0.00 0.00 0.00 93 1017.6
20260903121102 13 153 0.0 0.0 0.00 0.00 0.00 93 1017.6
20260903120600 13 153 0.0 0.0 0.00 0.00 0.00 93 1017.9
20260903120050 13 157 0.0 0.0 0.00 0.00 0.00 93 1017.8
20260903115549 13 157 0.0 0.0 0.00 0.00 0.00 93 1017.8
20260903115044 13 155 0.0 0.0 0.00 0.00 0.00 93 1017.8
20260903114539 13 153 0.0 0.0 0.00 0.00 0.00 93 1017.9
20260903114035 13 148 0.0 0.0 0.00 0.00 0.00 93 1017.9
20260903113530 13 153 0.0 0.0 0.00 0.00 0.00 93 1017.9
20260903113026 13 166 0.0 0.0 0.00 0.00 0.00 94 1017.7
20260903112521 13 149 0.0 0.0 0.00 0.00 0.00 94 1017.8
20260903112016 13 149 0.0 0.0 0.00 0.00 0.00 94 1017.7
20260903111515 13 149 0.0 0.0 0.00 0.00 0.00 94 1017.9
20260903111011 13 149 0.0 0.0 0.00 0.00 0.00 94 1017.9
20260903110507 14 149 0.0 0.0 0.00 0.00 0.00 95 1017.8
20260903110007 14 149 0.0 0.0 0.00 0.00 0.00 95 1018.0
20260903105501 14 149 0.0 0.0 0.00 0.00 0.00 95 1018.0
20260903104956 14 149 0.0 0.0 0.00 0.00 0.00 96 1018.2
20260903104456 14 149 0.0 0.0 0.00 0.00 0.00 96 1018.3
20260903103953 14 149 0.0 0.0 0.00 0.00 0.00 96 1018.1
20260903103448 14 149 0.0 0.0 0.00 0.00 0.00 96 1018.2
20260903102944 14 149 0.0 0.0 0.00 0.00 0.00 96 1017.9
20260903102439 14 149 0.0 0.0 0.00 0.00 0.00 96 1018.1
20260903101937 14 149 0.0 0.0 0.00 0.00 0.00 96 1018.3
20260903101433 14 149 0.0 0.0 0.00 0.00 0.00 96 1018.0
20260903100928 14 147 0.0 0.0 0.00 0.00 0.00 96 1017.8
20260903100423 14 148 0.0 0.0 0.00 0.00 0.00 96 1018.2
20260903095920 14 147 0.0 0.0 0.00 0.00 0.00 95 1018.1
20260903095415 14 146 0.0 0.0 0.00 0.00 0.00 95 1018.1
20260903094910 14 149 0.0 0.0 0.00 0.00 0.00 95 1018.0
20260903094408 15 161 0.0 0.0 0.00 0.00 0.00 95 1018.1
20260903093905 15 157 0.0 0.0 0.00 0.00 0.00 95 1018.3
20260903093400 15 158 0.0 0.0 0.00 0.00 0.00 96 1018.4
20260903092856 15 149 0.0 0.0 0.00 0.00 0.00 96 1018.3
20260903092355 15 144 0.0 1.6 0.00 0.00 0.00 96 1018.5
20260903091853 15 171 0.0 0.0 0.00 0.00 0.00 95 1018.4
20260903091353 15 140 0.0 0.0 0.00 0.00 0.00 95 1018.3
20260903090848 15 158 0.0 0.0 0.00 0.00 0.00 95 1018.4
20260903090343 15 157 0.0 0.0 0.00 0.00 0.00 94 1018.4
20260903085841 15 149 0.0 0.0 0.00 0.00 0.00 94 1018.5
20260903085336 15 151 0.0 0.0 0.00 0.00 0.00 94 1018.4
20260903084835 15 153 0.0 0.0 0.00 0.00 0.00 94 1018.6
20260903084334 15 157 0.0 0.0 0.00 0.00 0.00 94 1018.7
20260903083830 15 157 0.0 0.0 0.00 0.00 0.00 94 1018.7
20260903083325 15 158 0.0 0.0 0.00 0.00 0.00 94 1018.5
20260903082824 15 158 0.0 0.0 0.00 0.00 0.00 95 1018.6
20260903082319 15 164 0.0 0.0 0.00 0.00 0.00 95 1018.4
20260903081815 15 157 0.0 0.0 0.00 0.00 0.00 95 1018.8
20260903081310 15 157 0.0 0.0 0.00 0.00 0.00 95 1018.6
20260903080807 15 165 0.0 0.0 0.00 0.00 0.00 94 1018.6
20260903080303 15 158 0.0 0.0 0.00 0.00 0.00 95 1018.5
20260903075802 15 160 0.0 0.0 0.00 0.00 0.00 94 1018.5
20260903075258 15 156 0.0 0.0 0.00 0.00 0.00 95 1018.6
20260903074757 15 157 0.0 0.0 0.00 0.00 0.00 94 1018.7
20260903074252 15 142 0.0 0.0 0.00 0.00 0.00 94 1018.4
20260903073747 15 149 0.0 0.0 0.00 0.00 0.00 94 1018.7
20260903073242 15 155 0.0 0.0 0.00 0.00 0.00 94 1018.7
20260903072738 16 155 0.0 0.0 0.00 0.00 0.00 94 1018.7
20260903072234 16 155 0.0 0.0 0.00 0.00 0.00 94 1018.4
20260903071731 16 157 0.0 0.0 0.00 0.00 0.00 94 1018.6
20260903071226 16 156 0.0 0.0 0.00 0.00 0.00 93 1018.7
20260903070726 16 155 0.0 0.0 0.00 0.00 0.00 93 1018.7
20260903070222 16 155 0.0 0.0 0.00 0.00 0.00 93 1018.8
20260903065717 16 160 0.0 0.0 0.00 0.00 0.00 93 1018.7
20260903065211 16 155 0.0 0.0 0.00 0.00 0.00 94 1018.4
20260903064710 16 260 1.6 3.2 0.00 0.00 0.00 94 1018.8
20260903064205 16 198 1.6 1.6 0.00 0.00 0.00 93 1018.6
20260903063701 16 161 0.0 0.0 0.00 0.00 0.00 94 1018.8
20260903063156 16 153 0.0 0.0 0.00 0.00 0.00 94 1018.6
20260903062652 16 156 0.0 0.0 0.00 0.00 0.00 94 1018.5
20260903062147 16 147 0.0 0.0 0.00 0.00 0.00 94 1018.6
20260903061642 16 161 0.0 0.0 0.00 0.00 0.00 94 1018.6
20260903061141 16 157 0.0 0.0 0.00 0.00 0.00 93 1018.6
20260903060637 16 157 0.0 0.0 0.00 0.00 0.00 93 1018.6
20260903060132 16 162 0.0 0.0 0.00 0.00 0.00 93 1018.8
20260903055629 16 166 0.0 0.0 0.00 0.00 0.00 93 1018.5
20260903055128 16 163 0.0 0.0 0.00 0.00 0.00 94 1018.6
20260903054622 16 153 0.0 0.0 0.00 0.00 0.00 94 1018.8
20260903054118 16 157 0.0 0.0 0.00 0.00 0.00 93 1018.7
20260903053614 16 148 0.0 0.0 0.00 0.00 0.00 93 1018.8
20260903053109 16 157 0.0 0.0 0.00 0.00 0.00 93 1018.8
20260903052605 16 160 0.0 0.0 0.00 0.00 0.00 93 1018.7
20260903052100 16 162 0.0 0.0 0.00 0.00 0.00 93 1018.9
20260903051555 16 153 0.0 0.0 0.00 0.00 0.00 92 1018.8
20260903051051 16 153 0.0 0.0 0.00 0.00 0.00 91 1018.8
20260903050550 16 157 0.0 0.0 0.00 0.00 0.00 91 1018.8
20260903050046 17 161 0.0 0.0 0.00 0.00 0.00 92 1018.9
20260903045544 17 169 0.0 1.6 0.00 0.00 0.00 91 1018.9
20260903045042 17 163 0.0 0.0 0.00 0.00 0.00 90 1018.8
20260903044537 17 166 0.0 0.0 0.00 0.00 0.00 90 1019.0
20260903044032 17 151 0.0 0.0 0.00 0.00 0.00 89 1018.9
20260903043528 17 178 1.6 1.6 0.00 0.00 0.00 90 1019.0
20260903043027 17 193 0.0 0.0 0.00 0.00 0.00 89 1019.0
20260903042521 17 159 0.0 0.0 0.00 0.00 0.00 88 1018.9
20260903042017 17 177 0.0 0.0 0.00 0.00 0.00 88 1018.9
20260903041515 17 165 0.0 0.0 0.00 0.00 0.00 87 1019.1
20260903041014 17 174 0.0 1.6 0.00 0.00 0.00 87 1018.9
20260903040513 17 169 0.0 1.6 0.00 0.00 0.00 86 1019.0
20260903040010 17 212 0.0 3.2 0.00 0.00 0.00 86 1018.8
20260903035505 17 158 0.0 1.6 0.00 0.00 0.00 86 1018.8
20260903035000 18 153 0.0 0.0 0.00 0.00 0.00 85 1018.6
20260903034455 18 183 1.6 3.2 0.00 0.00 0.00 85 1018.5
20260903033955 18 180 1.6 3.2 0.00 0.00 0.00 84 1018.7
20260903033451 18 203 3.2 3.2 0.00 0.00 0.00 83 1018.4
20260903032946 18 163 0.0 0.0 0.00 0.00 0.00 81 1018.6